Location: Moscow
(55.7500°N, 37.5830°E)
Time: 06:32:14
(UTC+03:00)

Envisat - Pass Details

Date: 28 October 2021
Orbit: 764 x 766 km, 98.2° (Epoch: 28 November)

Event Time Altitude Azimuth Distance (km) Brightness Sun altitude
Rises 04:45:58 0° 21° (NNE) 3,247 6.7 -23.1°
Reaches altitude 10° 04:48:37 10° 33° (NNE) 2,315 6.0 -22.7°
Maximum altitude 04:52:59 28° 92° (E) 1,417 5.1 -22.1°
Drops below altitude 10° 04:57:18 10° 151° (SSE) 2,300 5.7 -21.5°
Sets 04:59:55 0° 163° (SSE) 3,221 6.4 -21.2°
